Time,TemperatureF,DewpointF,PressureIn,WindDirection,WindDirectionDegrees,WindSpeedMPH,WindSpeedGustMPH,Humidity,HourlyPrecipIn,Conditions,Clouds,dailyrainin,SoftwareType,DateUTC
2013-08-06 00:01:00,80.0,38.0,29.93,West,270,7.0,25.0,22,0.00,,,0.00,,2013-08-06 07:01:00,
2013-08-06 00:53:00,80.0,37.0,29.93,WNW,288,9.0,17.0,21,0.00,,,0.00,,2013-08-06 07:53:00,
2013-08-06 01:01:00,79.0,37.0,29.93,WNW,287,5.0,20.0,22,0.00,,,0.00,,2013-08-06 08:01:00,
2013-08-06 01:11:00,79.0,37.0,29.93,West,280,6.0,12.0,22,0.00,,,0.00,,2013-08-06 08:11:00,
2013-08-06 01:32:00,79.0,36.0,29.93,NW,314,5.0,15.0,21,0.00,,,0.00,,2013-08-06 08:32:00,
2013-08-06 01:52:00,78.0,38.0,29.93,South,189,5.0,10.0,24,0.00,,,0.00,,2013-08-06 08:52:00,
2013-08-06 02:01:00,78.0,39.0,29.93,West,259,6.0,15.0,25,0.00,,,0.00,,2013-08-06 09:01:00,
2013-08-06 02:11:00,78.0,36.0,29.92,SSW,211,7.0,15.0,22,0.00,,,0.00,,2013-08-06 09:11:00,
2013-08-06 02:52:00,79.0,37.0,29.91,WNW,295,15.0,25.0,22,0.00,,,0.00,,2013-08-06 09:52:00,
2013-08-06 03:01:00,78.0,37.0,29.91,WNW,287,16.0,25.0,23,0.00,,,0.00,,2013-08-06 10:01:00,
2013-08-06 03:11:00,78.0,37.0,29.91,WNW,299,15.0,23.0,23,0.00,,,0.00,,2013-08-06 10:11:00,
2013-08-06 03:52:00,76.0,41.0,29.91,West,260,8.0,17.0,28,0.00,,,0.00,,2013-08-06 10:52:00,
2013-08-06 04:32:00,77.0,35.0,29.91,West,272,10.0,17.0,22,0.00,,,0.00,,2013-08-06 11:32:00,
2013-08-06 04:53:00,75.0,39.0,29.91,West,262,11.0,17.0,27,0.00,,,0.00,,2013-08-06 11:53:00,
2013-08-06 05:01:00,75.0,38.0,29.92,West,275,9.0,17.0,26,0.00,,,0.00,,2013-08-06 12:01:00,
2013-08-06 05:11:00,75.0,36.0,29.92,WNW,291,8.0,13.0,24,0.00,,,0.00,,2013-08-06 12:11:00,
2013-08-06 05:43:00,75.0,40.0,29.93,West,271,6.0,12.0,28,0.00,,,0.00,,2013-08-06 12:43:00,
2013-08-06 05:52:00,75.0,41.0,29.93,West,270,5.0,11.0,29,0.00,,,0.00,,2013-08-06 12:52:00,
2013-08-06 06:01:00,74.0,41.0,29.93,West,263,10.0,15.0,30,0.00,,,0.00,,2013-08-06 13:01:00,
2013-08-06 06:11:00,74.0,41.0,29.93,WSW,257,8.0,15.0,30,0.00,,,0.00,,2013-08-06 13:11:00,
2013-08-06 06:52:00,74.0,41.0,29.94,WNW,286,6.0,16.0,31,0.00,,,0.00,,2013-08-06 13:52:00,
2013-08-06 07:11:00,75.0,42.0,29.95,WNW,284,3.0,8.0,31,0.00,,,0.00,,2013-08-06 14:11:00,
2013-08-06 09:11:00,82.0,44.0,29.97,WSW,255,8.0,16.0,26,0.00,,,0.00,,2013-08-06 16:11:00,
2013-08-06 09:32:00,83.0,44.0,29.97,West,260,7.0,13.0,25,0.00,,,0.00,,2013-08-06 16:32:00,
2013-08-06 09:52:00,85.0,44.0,29.96,WSW,258,11.0,18.0,24,0.00,,,0.00,,2013-08-06 16:52:00,
2013-08-06 10:01:00,86.0,43.0,29.96,WSW,242,11.0,18.0,22,0.00,,,0.00,,2013-08-06 17:01:00,
2013-08-06 10:11:00,86.0,43.0,29.96,WSW,254,9.0,18.0,22,0.00,,,0.00,,2013-08-06 17:11:00,
2013-08-06 10:43:00,88.0,39.0,29.96,WSW,250,13.0,23.0,18,0.00,,,0.00,,2013-08-06 17:43:00,
2013-08-06 10:52:00,89.0,38.0,29.96,SW,225,11.0,21.0,17,0.00,,,0.00,,2013-08-06 17:52:00,
2013-08-06 11:01:00,89.0,35.0,29.96,WSW,255,7.0,22.0,15,0.00,,,0.00,,2013-08-06 18:01:00,
2013-08-06 11:11:00,90.0,34.0,29.96,WSW,253,11.0,18.0,14,0.00,,,0.00,,2013-08-06 18:11:00,
2013-08-06 11:32:00,91.0,33.0,29.96,SW,226,11.0,20.0,13,0.00,,,0.00,,2013-08-06 18:32:00,
2013-08-06 11:52:00,92.0,34.0,29.96,WSW,247,6.0,16.0,13,0.00,,,0.00,,2013-08-06 18:52:00,
2013-08-06 12:01:00,91.0,35.0,29.95,SSW,198,10.0,18.0,14,0.00,,,0.00,,2013-08-06 19:01:00,
2013-08-06 12:32:00,93.0,35.0,29.95,SW,218,13.0,20.0,13,0.00,,,0.00,,2013-08-06 19:32:00,
2013-08-06 13:43:00,94.0,24.0,29.92,SSW,207,17.0,28.0,8,0.00,,,0.00,,2013-08-06 20:43:00,
2013-08-06 14:43:00,95.0,27.0,29.90,SSW,193,18.0,28.0,9,0.00,,,0.00,,2013-08-06 21:43:00,
2013-08-06 15:32:00,93.0,28.0,29.90,SSW,194,25.0,34.0,10,0.00,,,0.00,,2013-08-06 22:32:00,
2013-08-06 16:32:00,92.0,30.0,29.90,SW,218,28.0,36.0,11,0.00,,,0.00,,2013-08-06 23:32:00,
2013-08-06 16:42:00,92.0,30.0,29.90,SSW,204,24.0,38.0,11,0.00,,,0.00,,2013-08-06 23:42:00,
2013-08-06 16:52:00,92.0,30.0,29.90,SSW,213,23.0,37.0,11,0.00,,,0.00,,2013-08-06 23:52:00,
2013-08-06 17:01:00,91.0,29.0,29.90,SW,221,24.0,38.0,11,0.00,,,0.00,,2013-08-07 00:01:00,
2013-08-06 17:11:00,91.0,29.0,29.90,SSW,203,23.0,36.0,11,0.00,,,0.00,,2013-08-07 00:11:00,
2013-08-06 17:21:00,90.0,31.0,29.90,SW,219,26.0,35.0,12,0.00,,,0.00,,2013-08-07 00:21:00,
2013-08-06 17:43:00,87.0,32.0,29.91,SW,218,15.0,39.0,14,0.00,,,0.00,,2013-08-07 00:43:00,
2013-08-06 18:43:00,88.0,33.0,29.91,WNW,288,22.0,28.0,14,0.00,,,0.00,,2013-08-07 01:43:00,
2013-08-06 19:43:00,85.0,38.0,29.92,West,277,18.0,29.0,19,0.00,,,0.00,,2013-08-07 02:43:00,
2013-08-06 19:53:00,85.0,39.0,29.92,West,263,10.0,27.0,20,0.00,,,0.00,,2013-08-07 02:53:00,
2013-08-06 20:01:00,84.0,39.0,29.93,West,260,11.0,22.0,20,0.00,,,0.00,,2013-08-07 03:01:00,
2013-08-06 20:32:00,83.0,39.0,29.93,WSW,258,9.0,20.0,21,0.00,,,0.00,,2013-08-07 03:32:00,
2013-08-06 20:43:00,82.0,41.0,29.94,West,261,10.0,23.0,23,0.00,,,0.00,,2013-08-07 03:43:00,
2013-08-06 20:52:00,82.0,41.0,29.94,WSW,252,9.0,17.0,23,0.00,,,0.00,,2013-08-07 03:52:00,
2013-08-06 21:01:00,81.0,41.0,29.94,SW,234,8.0,18.0,24,0.00,,,0.00,,2013-08-07 04:01:00,
2013-08-06 21:11:00,81.0,42.0,29.94,West,265,9.0,17.0,25,0.00,,,0.00,,2013-08-07 04:11:00,
2013-08-06 21:21:00,81.0,42.0,29.95,West,262,10.0,18.0,25,0.00,,,0.00,,2013-08-07 04:21:00,
2013-08-06 21:33:00,81.0,43.0,29.96,West,259,10.0,19.0,26,0.00,,,0.00,,2013-08-07 04:33:00,
2013-08-06 21:42:00,80.0,42.0,29.96,WSW,255,9.0,21.0,26,0.00,,,0.00,,2013-08-07 04:42:00,
2013-08-06 21:52:00,80.0,43.0,29.96,WSW,246,10.0,20.0,27,0.00,,,0.00,,2013-08-07 04:52:00,
2013-08-06 22:02:00,80.0,43.0,29.96,WSW,258,10.0,20.0,27,0.00,,,0.00,,2013-08-07 05:02:00,
2013-08-06 22:11:00,80.0,43.0,29.96,WSW,253,9.0,20.0,27,0.00,,,0.00,,2013-08-07 05:11:00,
2013-08-06 22:32:00,79.0,43.0,29.97,WSW,239,8.0,18.0,28,0.00,,,0.00,,2013-08-07 05:32:00,
2013-08-06 22:43:00,79.0,42.0,29.97,WSW,258,7.0,15.0,27,0.00,,,0.00,,2013-08-07 05:43:00,
2013-08-06 22:52:00,79.0,42.0,29.97,West,277,10.0,21.0,27,0.00,,,0.00,,2013-08-07 05:52:00,
2013-08-06 23:02:00,79.0,41.0,29.97,West,262,11.0,21.0,26,0.00,,,0.00,,2013-08-07 06:02:00,
2013-08-06 23:32:00,79.0,42.0,29.97,WNW,285,17.0,30.0,27,0.00,,,0.00,,2013-08-07 06:32:00,
2013-08-06 23:52:00,79.0,41.0,29.97,West,271,11.0,21.0,26,0.00,,,0.00,,2013-08-07 06:52:00,